Stations météo

Publicité
Paris/Le Bourget, France (7150): Température de l'air & dewpoint: 10.11.2018 16:00:00 - 16.11.2018 16:00:00 (CET)Paris/Le Bourget, France (7150): Température de l'air 5cm: 10.11.2018 16:00:00 - 16.11.2018 16:00:00 (CET)Paris/Le Bourget, France (7150): Température de l'air -20cm & Température de l'air -100cm: 10.11.2018 16:00:00 - 16.11.2018 16:00:00 (CET)Paris/Le Bourget, France (7150): Vitesse du vent & gusts: 10.11.2018 16:00:00 - 16.11.2018 16:00:00 (CET)Paris/Le Bourget, France (7150): Direction du vent: 10.11.2018 16:00:00 - 16.11.2018 16:00:00 (CET)Paris/Le Bourget, France (7150): reduced air pressure: 10.11.2018 16:00:00 - 16.11.2018 16:00:00 (CET)Paris/Le Bourget, France (7150): visibility: 10.11.2018 16:00:00 - 16.11.2018 16:00:00 (CET)Paris/Le Bourget, France (7150): Quantités de précipitations: 10.11.2018 16:00:00 - 16.11.2018 16:00:00 (CET)
Date & Time tt [°C] td [°C] tt 5cm [°C] tt -20cm [°C] tt -100cm [°C] ff [km/h] ff [knt] fx [km/h] fx [knt] dd ppp [hPa] vv [km] rr [mm]
16.11.2018 16:00:00 6,2 5,6 6,6 9,4 11,6 12 7 22 12 ENE 1025,7 4,9 0,0
16.11.2018 15:00:00 6,4 5,8 6,9 9,4 11,6 15 8 22 12 ENE 1025,8 4,0 0,0
16.11.2018 14:00:00 6,5 5,9 7,0 9,5 11,6 13 7 22 12 E 1026,0 3,1 0,0
16.11.2018 13:00:00 6,7 6,1 7,1 9,5 11,6 11 6 29 16 E 1026,2 1,9 0,0
16.11.2018 12:00:00 6,4 6,0 7,0 9,5 11,6 13 7 24 13 E 1026,3 2,3 0,0
16.11.2018 11:00:00 6,7 6,3 6,9 9,5 11,6 12 6 21 11 ESE 1026,5 1,8 0,0
16.11.2018 10:00:00 6,7 6,3 6,8 9,6 11,6 10 6 19 10 E 1026,3 1,2 0,0
16.11.2018 09:00:00 6,7 6,3 6,7 9,6 11,6 13 7 22 12 E 1026,0 2,2 0,0
16.11.2018 08:00:00 6,7 6,1 6,8 9,6 11,6 16 9 23 12 ENE 1025,4 1,1 0,0
16.11.2018 07:00:00 7,1 6,5 7,1 9,6 11,6 13 7 19 10 ENE 1025,4 0,8 0,0
16.11.2018 06:00:00 7,6 7,0 7,7 9,6 11,6 10 6 17 9 ENE 1025,1 0,8 0,0
16.11.2018 05:00:00 8,5 7,9 8,4 9,6 11,7 9 5 16 9 E 1024,4 1,2 0,0
16.11.2018 04:00:00 8,8 8,2 8,7 9,6 11,6 13 7 18 10 E 1024,5 1,1 0,0
16.11.2018 03:00:00 9,3 8,7 8,8 9,6 11,6 10 5 16 8 ESE 1024,3 1,7 0,0
16.11.2018 02:00:00 8,9 8,3 8,7 9,6 11,7 11 6 17 9 ESE 1024,3 2,2 0,0
16.11.2018 01:00:00 8,8 8,2 8,7 9,6 11,7 9 5 14 8 E 1024,3 1,4 0,0
16.11.2018 00:00:00 8,7 8,1 8,6 9,6 11,7 6 3 14 8 SE 1024,2 2,7 0,0
15.11.2018 23:00:00 8,9 8,3 8,7 9,6 11,7 5 3 11 6 ESE 1024,2 2,3 0,0
15.11.2018 22:00:00 8,8 8,2 8,7 9,6 11,7 5 3 19 10 ESE 1024,1 2,6 0,0
15.11.2018 21:00:00 8,9 8,3 8,6 9,6 11,7 10 5 22 12 E 1023,7 2,0 0,0
15.11.2018 20:00:00 8,8 8,2 8,6 9,6 11,7 11 6 22 12 ESE 1023,6 2,9 0,0
15.11.2018 19:00:00 9,3 8,5 9,2 9,5 11,7 11 6 16 9 ESE 1023,5 3,8 0,0
15.11.2018 18:00:00 9,4 8,6 9,2 9,5 11,7 9 5 15 8 E 1023,1 3,8 0,0
15.11.2018 17:00:00 9,4 8,6 9,2 9,5 11,7 9 5 16 9 E 1022,8 7 0,0
15.11.2018 16:00:00 9,3 8,4 9,3 9,4 11,7 10 6 19 10 E 1022,8 6 0,0
15.11.2018 15:00:00 9,2 8,4 9,2 9,4 11,7 10 5 20 11 E 1023,0 8 0,0
15.11.2018 14:00:00 9,1 8,3 9,3 9,3 11,7 14 8 20 11 SE 1023,3 8 0,0
15.11.2018 13:00:00 9,1 8,5 9,1 9,3 11,8 11 6 18 10 ESE 1023,5 6 0,0
15.11.2018 12:00:00 8,7 8,1 8,6 9,2 11,7 12 6 20 11 SE 1023,8 6 0,0
15.11.2018 11:00:00 8,2 7,8 7,8 9,2 11,8 13 7 20 11 ESE 1024,1 5 0,0
15.11.2018 10:00:00 7,7 7,1 7,5 9,2 11,7 14 8 21 12 ESE 1024,5 3,8 0,0
15.11.2018 09:00:00 7,4 6,8 7,3 9,3 11,8 14 8 21 12 ESE 1024,3 2,4 0,0
15.11.2018 08:00:00 7,3 6,9 7,3 9,3 11,8 14 7 21 11 ESE 1023,9 1,1 0,0
15.11.2018 07:00:00 7,7 7,1 7,7 9,3 11,8 10 6 18 10 ESE 1023,5 0,5 0,0
15.11.2018 06:00:00 7,9 7,3 7,8 9,4 11,8 13 7 19 10 ESE 1023,1 0,4 0,0
15.11.2018 05:00:00 7,9 7,3 7,8 9,5 11,8 11 6 18 10 SE 1023,0 0,4 0,0
15.11.2018 04:00:00 7,9 7,3 4,5 9,6 11,8 10 6 16 9 SE 1023,1 0,8 0,0
15.11.2018 03:00:00 6,4 5,7 5,0 9,7 11,8 10 5 12 7 ENE 1023,4 4,7 0,2
15.11.2018 02:00:00 7,1 6,4 5,2 9,8 11,8 10 6 12 7 ENE 1023,4 7 0,0
15.11.2018 01:00:00 7,1 6,0 4,6 9,9 11,8 8 4 11 6 NE 1023,8 7 0,0
15.11.2018 00:00:00 7,2 6,1 5,4 10,0 11,8 8 4 10 5 NNE 1023,7 8 0,0
14.11.2018 23:00:00 8,1 7,0 5,8 10,1 11,8 6 3 9 5 NNE 1023,8 11 0,0
14.11.2018 22:00:00 8,4 7,3 6,6 10,2 11,8 8 4 10 5 NE 1023,9 12 0,0
14.11.2018 21:00:00 9,4 7,8 6,7 10,2 11,8 7 4 10 5 NE 1024,1 14 0,0
14.11.2018 20:00:00 9,6 7,9 7,1 10,3 11,8 8 4 12 7 E 1024,3 22 0,0
14.11.2018 19:00:00 10,2 8,0 8,0 10,2 11,8 8 4 17 9 E 1024,3 33 0,0
14.11.2018 18:00:00 11,8 8,5 10,0 10,1 11,8 9 5 17 9 ESE 1024,2 43 0,0
14.11.2018 17:00:00 13,1 8,6 11,6 9,9 11,8 11 6 16 9 SE 1024,3 46 0,0
14.11.2018 16:00:00 14,5 8,9 17,2 9,7 11,8 11 6 19 10 SE 1024,4 37 0,0
14.11.2018 15:00:00 14,9 9,0 18,7 9,4 11,8 12 7 21 12 SSE 1024,7 42 0,0
14.11.2018 14:00:00 14,8 8,9 17,7 9,1 11,8 13 7 22 12 SSE 1025,0 23 0,0
14.11.2018 13:00:00 13,6 8,2 15,6 9,0 11,9 16 8 23 13 SSE 1025,3 19 0,0
14.11.2018 12:00:00 11,8 7,7 12,5 8,9 11,9 8 4 14 7 E 1026,0 18 0,0
14.11.2018 11:00:00 9,8 7,2 9,7 8,9 11,9 9 5 14 7 E 1026,8 12 0,0
14.11.2018 10:00:00 7,7 6,9 6,5 9,1 11,9 6 4 10 5 E 1027,0 12 0,0
14.11.2018 09:00:00 5,6 5,0 1,8 9,2 11,9 7 4 11 6 NNE 1027,4 5 0,0
14.11.2018 08:00:00 4,0 3,3 1,8 9,4 11,9 6 3 12 7 E 1027,1 3,6 0,0
14.11.2018 07:00:00 4,2 3,5 2,1 9,5 11,9 9 5 11 6 NE 1027,4 1,9 0,0
14.11.2018 06:00:00 4,1 3,4 2,7 9,6 11,8 9 5 11 6 ENE 1027,8 1,6 0,0
14.11.2018 05:00:00 5,0 4,3 3,6 9,8 11,9 9 5 10 5 NE 1028,3 3,4 0,0
14.11.2018 04:00:00 5,4 4,7 4,1 9,9 11,9 6 4 11 6 E 1028,7 5 0,0
14.11.2018 03:00:00 5,7 5,0 4,3 10,0 11,8 9 5 11 6 E 1029,2 7 0,0
14.11.2018 02:00:00 6,0 5,1 4,2 10,2 11,9 8 4 11 6 E 1029,5 9 0,0
14.11.2018 01:00:00 6,6 5,5 3,8 10,4 11,8 5 3 11 6 E 1029,7 9 0,0
14.11.2018 00:00:00 6,5 5,6 4,4 10,5 11,8 10 6 12 6 ESE 1029,9 10 0,0
13.11.2018 23:00:00 6,6 5,1 4,2 10,7 11,8 5 3 10 6 ESE 1029,8 12 0,0
13.11.2018 22:00:00 8,1 6,2 5,0 10,8 11,8 8 4 12 6 SE 1029,8 12 0,0
13.11.2018 21:00:00 8,2 6,3 4,6 10,9 11,8 6 3 10 6 SE 1029,8 20 0,0
13.11.2018 20:00:00 8,8 5,5 5,2 11,0 11,8 8 4 10 5 SSE 1029,8 28 0,0
13.11.2018 19:00:00 10,0 5,8 6,5 11,0 11,8 8 4 11 6 S 1029,3 40 0,0
13.11.2018 18:00:00 11,4 5,9 8,7 11,0 11,8 7 4 11 6 SSW 1029,4 59 0,0
13.11.2018 17:00:00 12,9 6,0 10,5 10,8 11,8 8 5 22 12 WSW 1029,0 57 0,0
13.11.2018 16:00:00 14,6 6,4 17,0 10,7 11,8 13 7 29 16 WSW 1028,3 51 0,0
13.11.2018 15:00:00 14,7 6,5 14,8 10,6 11,8 19 10 34 18 WSW 1027,8 33 0,0
13.11.2018 14:00:00 14,7 7,5 14,4 10,4 11,8 16 9 35 19 WSW 1027,7 46 0,0
13.11.2018 13:00:00 13,7 7,0 13,3 10,3 11,8 21 11 39 21 SW 1027,4 43 0,0
13.11.2018 12:00:00 13,1 7,7 13,0 10,3 11,8 24 13 39 21 SW 1027,8 39 0,0
13.11.2018 11:00:00 12,8 8,5 12,1 10,2 11,8 21 11 36 19 SW 1027,5 32 0,0
13.11.2018 10:00:00 12,0 8,3 10,6 10,3 11,8 18 10 31 17 SSW 1026,7 19 0,0
13.11.2018 09:00:00 10,8 8,4 9,0 10,3 11,8 18 10 31 17 SSW 1025,8 34 0,0
13.11.2018 08:00:00 10,2 8,0 8,8 10,4 11,8 15 8 31 17 SSW 1025,0 30 0,0
13.11.2018 07:00:00 10,3 8,1 8,3 10,5 11,8 14 8 35 19 SSW 1024,0 30 0,0
13.11.2018 06:00:00 9,7 8,0 7,5 10,5 11,8 11 6 22 12 S 1023,1 26 0,0
13.11.2018 05:00:00 10,4 8,2 8,4 10,6 11,8 14 7 27 15 S 1022,4 26 0,0
13.11.2018 04:00:00 10,4 8,3 9,2 10,6 11,8 11 6 26 14 SSW 1021,9 23 0,0
13.11.2018 03:00:00 11,3 9,0 10,3 10,7 11,8 13 7 29 15 SSW 1021,6 22 0,0
13.11.2018 02:00:00 10,8 9,1 9,8 10,7 11,8 10 6 18 10 S 1021,2 13 0,0
13.11.2018 01:00:00 10,4 9,0 9,5 10,8 11,8 13 7 18 10 SSE 1020,5 12 0,0
13.11.2018 00:00:00 10,2 9,0 9,5 10,8 11,8 10 5 19 10 S 1020,3 12 0,0
12.11.2018 23:00:00 10,2 9,0 9,5 10,9 11,8 12 7 18 10 SSE 1019,6 15 0,0
12.11.2018 22:00:00 10,2 9,0 9,2 10,9 11,8 11 6 16 9 SSE 1019,5 18 0,0
12.11.2018 21:00:00 10,8 8,7 9,4 11,0 11,8 10 5 15 8 S 1018,8 25 0,0
12.11.2018 20:00:00 10,7 8,6 9,4 11,0 11,8 8 4 12 6 S 1018,7 46 0,0
12.11.2018 19:00:00 10,8 8,6 9,6 11,0 11,8 9 5 17 9 S 1018,5 59 0,0
12.11.2018 18:00:00 11,1 8,3 9,7 11,0 11,7 9 5 16 8 SSW 1017,6 60 0,0
12.11.2018 17:00:00 11,4 8,3 10,7 11,0 11,7 9 5 21 12 SW 1017,2 60 0,0
12.11.2018 16:00:00 12,0 8,5 11,9 10,9 11,8 13 7 20 11 SW 1016,6 53 0,0
12.11.2018 15:00:00 12,1 8,6 12,4 10,8 11,7 10 6 30 16 S 1015,8 57 0,0
12.11.2018 14:00:00 12,1 8,8 13,2 10,7 11,7 10 5 17 9 SW 1015,9 40 0,0
12.11.2018 13:00:00 11,3 8,9 11,6 10,7 11,7 8 4 19 10 SW 1015,1 44 0,0
12.11.2018 12:00:00 10,5 7,9 10,4 10,7 11,7 3 2 13 7 W 1014,9 55 0,0
12.11.2018 11:00:00 10,6 9,2 10,4 10,7 11,7 8 4 16 9 W 1014,8 17 1,0
12.11.2018 10:00:00 10,5 9,4 9,9 10,7 11,7 7 4 13 7 W 1013,8 8 0,4
12.11.2018 09:00:00 10,2 9,3 9,7 10,7 11,7 2 1 10 5 NNW 1012,7 18 0,8
12.11.2018 08:00:00 10,2 9,3 9,9 10,6 11,7 8 4 16 8 NW 1012,1 1,9 -
12.11.2018 07:00:00 10,6 9,8 10,3 10,7 11,7 5 3 10 6 WNW 1011,3 6 0,8
12.11.2018 06:00:00 10,8 10,0 10,2 10,6 11,7 5 3 10 5 WSW 1011,2 2,0 1,2
12.11.2018 05:00:00 10,8 10,0 10,3 10,7 11,7 4 2 9 5 SSE 1010,8 5 1,7
12.11.2018 04:00:00 10,9 10,1 10,5 10,7 11,7 6 3 12 7 ESE 1010,6 6 1,4
12.11.2018 03:00:00 11,2 10,4 10,6 10,8 11,7 10 5 16 9 SSE 1010,9 4,9 1,2
12.11.2018 02:00:00 11,0 10,2 10,3 10,8 11,7 8 4 10 5 E 1010,9 3,7 1,6
12.11.2018 01:00:00 11,2 10,4 10,4 10,8 11,7 9 5 12 6 SE 1011,2 5 0,8
12.11.2018 00:00:00 11,3 10,2 10,5 10,8 11,7 3 1 15 8 SSE 1011,0 7 0,2
11.11.2018 23:00:00 11,3 10,0 10,4 10,8 11,7 6 3 24 13 SSE 1011,2 7 1,4
11.11.2018 22:00:00 11,7 9,8 10,6 10,8 11,7 5 3 13 7 S 1011,2 6 0,4
11.11.2018 21:00:00 11,9 9,6 11,0 10,8 11,7 6 3 23 12 S 1010,3 57 0,0
11.11.2018 20:00:00 12,0 9,9 11,3 10,8 11,6 14 8 25 13 S 1010,0 60 0,0
11.11.2018 19:00:00 12,0 9,9 11,1 10,8 11,6 16 8 36 20 S 1009,1 56 0,0
11.11.2018 18:00:00 12,0 10,1 10,9 10,8 11,6 11 6 32 18 S 1008,9 35 0,6
11.11.2018 17:00:00 12,5 9,7 11,1 10,8 11,6 18 10 45 24 SSW 1008,1 14 0,4
11.11.2018 16:00:00 12,8 10,0 11,4 10,7 11,6 26 14 45 25 S 1007,6 20 0,4
11.11.2018 15:00:00 12,5 10,7 11,6 10,7 11,6 27 15 50 27 S 1006,9 16 0,8
11.11.2018 14:00:00 12,7 10,2 11,8 10,6 11,6 22 12 40 22 SSW 1007,0 43 0,0
11.11.2018 13:00:00 12,2 10,4 11,4 10,6 11,6 23 12 35 19 S 1006,8 44 0,8
11.11.2018 12:00:00 12,0 10,2 11,2 10,5 11,6 13 7 46 25 S 1007,6 10 1,2
11.11.2018 11:00:00 12,2 9,9 10,9 10,6 11,6 25 14 41 22 S 1006,8 18 0,4
11.11.2018 10:00:00 11,5 9,7 10,8 10,5 11,6 20 11 55 30 S 1006,2 4,9 0,6
11.11.2018 09:00:00 12,4 8,7 11,5 10,6 11,6 28 15 46 25 S 1005,1 60 0,0
11.11.2018 08:00:00 12,2 9,2 11,1 10,6 11,6 20 11 51 27 S 1004,5 60 0,0
11.11.2018 07:00:00 11,7 9,3 10,6 10,6 11,6 32 18 48 26 S 1004,2 58 0,0
11.11.2018 06:00:00 11,7 9,3 10,7 10,6 11,6 23 12 49 27 S 1003,8 57 0,4
11.11.2018 05:00:00 12,0 9,4 10,9 10,6 11,6 25 14 50 27 S 1003,5 20 0,0
11.11.2018 04:00:00 12,0 9,0 11,1 10,6 11,6 27 14 46 25 S 1003,3 60 0,0
11.11.2018 03:00:00 11,8 9,0 10,8 10,6 11,6 26 14 44 24 S 1003,0 54 0,2
11.11.2018 02:00:00 12,1 9,3 10,9 10,6 11,5 27 14 44 24 S 1002,9 14 0,2
11.11.2018 01:00:00 12,2 9,0 11,8 10,6 11,6 25 14 43 23 S 1003,2 44 0,0
11.11.2018 00:00:00 12,3 9,3 11,8 10,6 11,5 25 13 47 26 S 1003,0 37 0,0
10.11.2018 23:00:00 12,4 9,4 11,1 10,6 11,6 23 12 41 22 S 1003,0 35 0,0
10.11.2018 22:00:00 12,4 9,4 11,2 10,5 11,5 27 14 41 22 S 1002,7 19 0,2
10.11.2018 21:00:00 12,6 9,6 12,1 10,6 11,6 24 13 46 25 S 1002,6 42 0,0
10.11.2018 20:00:00 12,8 9,8 11,8 10,5 11,5 24 13 44 24 S 1002,4 49 0,0
10.11.2018 19:00:00 12,9 9,9 11,6 10,5 11,5 24 13 41 22 S 1002,0 60 0,0
10.11.2018 18:00:00 12,8 10,2 11,6 10,5 11,5 19 10 37 20 S 1001,9 60 0,0
10.11.2018 17:00:00 12,7 10,4 12,2 10,4 11,5 16 9 32 17 S 1001,7 13 0,0
10.11.2018 16:00:00 12,7 10,6 11,7 10,3 11,5 11 6 27 14 S 1001,5 60 0,2

tt = Température de l'air
td = dewpoint
tt 5cm = Température de l'air 5cm
tt -20cm = Température de l'air -20cm
tt -100cm = Température de l'air -100cm
ff = Vitesse du vent
fx = gusts
dd = Direction du vent
ppp = reduced air pressure
vv = visibility
rr = Quantités de précipitations

stations d'obs. à proximité